Orbital Elements at Epoch 2459000.5 (2020-May-31.0) TDB
Reference: JPL 25 (heliocentric ecliptic J2000)
Element | Value | Uncertainty (1-sigma) | Units |
e | .1190943739681646 | 3.3628e-08 | |
a | 2.381698517527741 | 7.7189e-09 | au |
q | 2.098051623601869 | 8.2284e-08 | au |
i | 1.617954461847034 | 3.3209e-06 | deg |
node | 296.4043143201604 | 0.00016071 | deg |
peri | 154.2657892251009 | 0.00016177 | deg |
M | 275.2630756811045 | 1.7863e-05 | deg |
tp | 2459316.508527374759 (2021-Apr-12.00852737) | 6.6671e-05 | TDB |
period | 1342.544242304359 3.68 | 6.5266e-06 1.787e-08 | d yr |
n | .2681475877339369 | 1.3036e-09 | deg/d |
Q | 2.665345411453613 | 8.6382e-09 | au |
|
| | Orbit Determination Parameters
Additional Information
|